Fábio Nardo

Olheiro - Palmeiras
3 Abr 2027
Sábado
Processo

Personalidade

Adaptabilidade (9) Ambição (19) Controvérsia (11) Lealdade (4) Pressão (3) Profissionalismo (8) Espírito Esportivo (3) Temperamento (3)

Perfil

Estilo de Treinamento Democrático
Licença Continental A
Determinação 9
Gestão de Pessoas 13
Motivação 13
Disciplina 16
Satisfação no Trabalho
50%
Fadiga
0%
Função Olheiro
Salário 105.3K p/s
Contrato 14.03.2030

Desempenho

Comportamento Normal
Eficácia do Treinamento
29%
Desenvolvimento do Jogador
65%
Prevenção de Lesões
70%
Implementação Tática
55%

Eventos Recentes

Participou de uma reunião de recrutamento agora
Avaliou um jogador agora
Participou de uma reunião de recrutamento 7d atrás
Avaliou um jogador 7d atrás
Avaliou um jogador 7d atrás
Avaliou um jogador 7d atrás
Avaliou um jogador 7d atrás
Avaliou um jogador 14d atrás

Monitorando agora

120
Jogador Clube Status Habilidade Confiança Observado Última observação Último voto
Félix Lemaréchal Club Brugge Ativo 132 / 139 40% 2 02.04.2027 -
Leandro Barreiro Benfica Ativo 151 / 145 40% 2 02.04.2027 -
Andrés Gómez Vasco da Gama Ativo 138 / 146 40% 1 02.04.2027 -
Alexis Vega Toluca Ativo 153 / 156 40% 3 01.04.2027 -
Jesús Angulo Tigres Ativo 129 / 120 40% 1 01.04.2027 -
Kévin Danois AJ Auxerre Ativo 135 / 134 40% 1 01.04.2027 -
Marcel Ruiz Toluca Ativo 148 / 152 40% 1 31.03.2027 -
Facundo Torres Shakhtar Ativo 127 / 153 40% 1 31.03.2027 -
Emam Ashour Al Ahly Ativo 140 / 142 40% 1 31.03.2027 -
Honest Ahanor Atalanta Ativo 123 / 135 40% 1 27.03.2027 -
Richard Ledezma Guadalajara Ativo 138 / 149 40% 2 26.03.2027 -
Mfundo Vilakazi Kaizer Chiefs Ativo 104 / 118 40% 1 26.03.2027 -
Sidny Lopes Cabral Trabzonspor Ativo 126 / 125 40% 1 26.03.2027 -
Eliás Montiel Pachuca Ativo 123 / 145 40% 1 25.03.2027 -
Lovro Zvonarek Estrela da Amadora Ativo 130 / 126 40% 1 25.03.2027 -
Michel Ndary Adopo Cagliari Ativo 128 / 128 40% 1 25.03.2027 -
Thierry Rendall Correia Venezia Ativo 135 / 126 40% 1 23.03.2027 -
Pablo Maffeo Olympiacos Ativo 133 / 133 40% 1 21.03.2027 -
Herba Guirassy Monaco Ativo 123 / 137 40% 1 21.03.2027 -
Esequiel Barco Spartak Moscow Ativo 143 / 123 40% 1 20.03.2027 -
Mamadou Diakhon Club Brugge Ativo 113 / 143 40% 1 20.03.2027 -
Gérson Cruzeiro Ativo 133 / 142 40% 1 19.03.2027 -
Bart van Rooij Twente Ativo 132 / 143 40% 1 19.03.2027 -
Gustavo Mantuan Zenit Ativo 147 / 145 40% 1 19.03.2027 -
Cesar Corona Veracruz Ativo 151 / 138 40% 3 17.03.2027 -
Luca Orellano Monterrey Ativo 129 / 117 40% 2 17.03.2027 -
Jonathan Arteaga Veracruz Ativo 116 / 135 40% 1 17.03.2027 -
Neymar Santos Rejeitado 138 / 155 69% 1 14.12.2026 Rejeitar
Luciano Acosta Fluminense Rejeitado 139 / 137 69% 1 02.12.2026 -
Guillaume Restes Toulouse FC Ativo 133 / 145 40% 4 29.11.2026 -
Leo Román Deportivo La Coruña Ativo 142 / 127 40% 3 29.11.2026 -
Sorriso Famalicao Ativo 137 / 141 40% 3 29.11.2026 -
Arijanet Murić Sassuolo Ativo 148 / 155 40% 2 29.11.2026 -
Nathan Fogaça Fortaleza Ativo 124 / 136 40% 1 29.11.2026 -
João Costa Santa Clara Ativo 111 / 95 40% 1 29.11.2026 -
Álvaro Valles Betis Ativo 133 / 158 40% 3 28.11.2026 -
Carl Rushworth Coventry City Rejeitado 141 / 126 40% 2 28.11.2026 -
Federico Ravaglia Bologna Ativo 141 / 149 40% 2 25.11.2026 -
Vanja Milinković-Savić Napoli Ativo 141 / 151 40% 4 25.11.2026 -
Zé Leite Oliveirense Ativo 127 / 121 40% 3 22.11.2026 -
Vinícius Lopes Santa Clara Ativo 130 / 131 40% 1 22.11.2026 -
Jalen Blesa Rio Ave Ativo 117 / 113 40% 2 19.11.2026 -
Michy Fellaini KV Oostende Ativo 141 / 119 40% 2 19.11.2026 -
Dominik Steczyk Académico de Viseu Ativo 92 / 83 40% 1 19.11.2026 -
Gabriel Barbosa Farense Ativo 104 / 91 40% 2 17.11.2026 -
Yassin Fortuné Vizela Ativo 113 / 93 40% 2 17.11.2026 -
Kaio Jorge Cruzeiro Ativo 133 / 131 40% 1 17.11.2026 -
Alejandro Piedrahita Deportivo Pereira Ativo 127 / 128 40% 3 16.11.2026 -
Henrique Araújo Casa Pia Ativo 117 / 138 40% 3 16.11.2026 -
Urko Izeta Cádiz Ativo 140 / 119 40% 1 16.11.2026 -
James Trafford Leeds United Ativo 134 / 130 40% 2 15.11.2026 -
Axel Alderweireld KV Oostende Ativo 146 / 132 40% 5 14.11.2026 -
Viktor Johansson Stoke City Ativo 121 / 133 40% 4 14.11.2026 -
Radek Vítek Middlesbrough Ativo 123 / 128 40% 1 13.11.2026 -
Simon Eriksson Racing Santander Ativo 103 / 132 40% 1 13.11.2026 -
Maduka Okoye Udinese Ativo 129 / 154 40% 3 11.11.2026 -
Lucas Duarte Felgueiras Ativo 102 / 105 40% 2 11.11.2026 -
Alfonso Trezza Arouca Ativo 126 / 118 40% 1 11.11.2026 -
Viktor Baier Viktoria Plzen Ativo 115 / 126 40% 1 11.11.2026 -
Matěj Kovář PSV Ativo 146 / 129 40% 3 07.11.2026 -
Santino Barbi Talleres Ativo 117 / 105 40% 1 07.11.2026 -
Korede Osundina Casa Pia Ativo 108 / 118 40% 2 03.11.2026 -
Jorge Pascual Granada Ativo 123 / 144 40% 1 03.11.2026 -
Gustavo Silva Vitoria Guimaraes Ativo 122 / 128 40% 4 02.11.2026 -
José Bica Leixões Ativo 104 / 99 40% 1 02.11.2026 -
Mésaque Djú Portimonense Ativo 112 / 97 40% 1 01.11.2026 -
Diego Conde Villarreal Ativo 133 / 126 40% 2 31.10.2026 -
Gabriel Brazão Santos Ativo 140 / 126 40% 2 30.10.2026 -
Dean Henderson Crystal Palace Ativo 153 / 133 40% 2 28.10.2026 -
Tomoki Hayakawa Feyenoord Ativo 125 / 147 40% 2 28.10.2026 -
Robin Risser RC Lens Ativo 141 / 146 40% 1 27.10.2026 -
Dominik Greif Olympique Lyonnais Ativo 135 / 133 40% 1 27.10.2026 -
Elia Caprile Cagliari Ativo 139 / 148 40% 3 23.10.2026 -
Marvin Keller Young Boys Ativo 151 / 157 40% 3 23.10.2026 -
Percy Erasmus SuperSport United Ativo 137 / 115 40% 2 22.10.2026 -
Sydney van Hooijdonk Estrela da Amadora Ativo 105 / 113 40% 2 19.10.2026 -
Kostantis Tzolakis Hull City Ativo 139 / 158 40% 4 17.10.2026 -
Antonín Kinský Tottenham Ativo 127 / 157 40% 4 15.10.2026 -
Álvaro Fernández Sevilla Ativo 125 / 148 40% 1 15.10.2026 -
Ionuţ Radu Celta Ativo 135 / 155 40% 1 14.10.2026 -
Tadeo Allende Inter Miami CF Ativo 129 / 102 40% 1 12.10.2026 -
Musa Barrow Al-Khaleej Ativo 128 / 132 40% 1 12.10.2026 -
Nicolò Tresoldi Club Brugge Ativo 133 / 146 40% 1 12.10.2026 -
Josep Martínez Inter Ativo 144 / 152 40% 1 12.10.2026 -
Fotis Ioannidis Sporting CP Ativo 137 / 151 40% 1 08.10.2026 -
Matvey Safonov Paris Saint-Germain Ativo 151 / 159 40% 3 07.10.2026 -
Camilo Durán Bloemfontein Celtic Ativo 105 / 113 40% 2 05.10.2026 -
Efraín Álvarez Guadalajara Ativo 133 / 119 40% 1 05.10.2026 -
Alan Velasco Boca Juniors Ativo 133 / 136 40% 1 02.10.2026 -
Oumar Camara Vitoria Guimaraes Ativo 125 / 119 40% 1 02.10.2026 -
Mamour N'Diaye Sarpsborg 08 Ativo 124 / 106 40% 1 01.10.2026 -
Jefry Zapata Once Caldas Ativo 110 / 108 40% 2 30.09.2026 -
Cheikh Sabaly Vancouver Whitecaps Ativo 122 / 112 40% 1 30.09.2026 -
Alexandre Duville-Parsemain Moreirense Ativo 98 / 112 40% 2 26.09.2026 -
Isidro Pitta Bragantino Ativo 125 / 138 40% 1 26.09.2026 -
Bénie Traoré New York City Ativo 116 / 142 40% 1 23.09.2026 -
Louis Munteanu DC United Ativo 123 / 137 40% 1 21.09.2026 -
Martín Ojeda Orlando City Ativo 128 / 134 40% 1 21.09.2026 -
Marco Carnesecchi Atalanta Ativo 144 / 135 40% 3 20.09.2026 -
Mile Svilar AS Roma Ativo 154 / 168 40% 1 20.09.2026 -
Figueiredo Alverca Ativo 132 / 128 40% 1 17.09.2026 -
Gabriel Novaes Nacional Ativo 109 / 120 40% 1 16.09.2026 -
Liel Abada Charlotte Football Club Ativo 144 / 121 40% 1 09.09.2026 -
Alexander Nübel Besiktas Ativo 146 / 144 40% 1 05.09.2026 -
Carlos Moreno Pachuca Ativo 142 / 115 40% 1 04.09.2026 -
Justin Bijlow Genoa Ativo 131 / 153 40% 1 31.08.2026 -
Đorđe Petrović Bournemouth Ativo 148 / 143 40% 4 28.08.2026 -
Elis Bishesari IFK Goteborg Ativo 115 / 116 40% 1 28.08.2026 -
Luis Malagón Club America Ativo 121 / 154 40% 2 24.08.2026 -
Pierce Charles Manchester City Ativo 111 / 128 40% 1 16.08.2026 -
Alex Meret Napoli Ativo 143 / 143 40% 1 15.08.2026 -
Keisuke Osako Sanfrecce Hiroshima Ativo 124 / 126 40% 1 15.08.2026 -
Kike Salas Sevilla Ativo 137 / 156 40% 1 09.08.2026 -
Tomás Araújo Benfica Ativo 139 / 159 40% 1 09.08.2026 -
Omar El Hilali Espanyol Ativo 139 / 153 40% 1 09.08.2026 -
Jérémy Jacquet Liverpool Ativo 147 / 124 40% 1 07.08.2026 -
Víctor Gómez Braga Ativo 149 / 146 40% 1 07.08.2026 -
Tony Strata Vitoria Guimaraes Ativo 108 / 141 40% 1 07.08.2026 -
Eduardo Quaresma Sporting CP Ativo 141 / 131 40% 1 02.08.2026 -
Pablo Rosario Porto Ativo 126 / 130 40% 1 02.08.2026 -